TimeEDT,TemperatureF,Dew PointF,Humidity,Sea Level PressureIn,VisibilityMPH,Wind Direction,Wind SpeedMPH,Gust SpeedMPH,PrecipitationIn,Events,Conditions,WindDirDegrees,DateUTC
12:03 AM,53.6,53.6,100,29.97,2.0,Calm,Calm,-,N/A,,Overcast,0,2013-05-21 04:03:00
12:14 AM,55.4,53.6,94,29.96,1.5,Calm,Calm,-,N/A,,Overcast,0,2013-05-21 04:14:00
12:38 AM,53.6,53.6,100,29.96,1.5,Calm,Calm,-,N/A,,Overcast,0,2013-05-21 04:38:00
12:51 AM,55.0,55.0,100,29.95,1.2,Calm,Calm,-,N/A,,Overcast,0,2013-05-21 04:51:00
1:10 AM,55.4,55.4,100,29.95,0.5,NNE,3.5,-,N/A,Fog,Fog,30,2013-05-21 05:10:00
1:24 AM,55.4,55.4,100,29.94,1.5,Calm,Calm,-,N/A,,Overcast,0,2013-05-21 05:24:00
1:37 AM,57.2,55.4,94,29.94,2.5,NNE,3.5,-,N/A,,Overcast,30,2013-05-21 05:37:00
1:49 AM,57.2,55.4,94,29.93,3.0,NE,3.5,-,N/A,,Overcast,40,2013-05-21 05:49:00
1:51 AM,57.0,55.9,96,29.92,3.0,NE,3.5,-,N/A,,Overcast,40,2013-05-21 05:51:00
2:06 AM,55.4,55.4,100,29.90,2.5,Calm,Calm,-,N/A,,Mostly Cloudy,0,2013-05-21 06:06:00
2:29 AM,55.4,55.4,100,29.90,2.5,ENE,3.5,-,N/A,,Scattered Clouds,70,2013-05-21 06:29:00
2:34 AM,57.2,55.4,94,29.89,1.8,ENE,3.5,-,N/A,,Mostly Cloudy,70,2013-05-21 06:34:00
2:51 AM,57.0,55.9,96,29.89,1.2,ENE,3.5,-,N/A,,Overcast,60,2013-05-21 06:51:00
3:04 AM,57.2,55.4,94,29.89,0.8,Calm,Calm,-,N/A,,Overcast,0,2013-05-21 07:04:00
3:12 AM,57.2,55.4,94,29.89,1.8,Calm,Calm,-,N/A,,Overcast,0,2013-05-21 07:12:00
3:33 AM,55.4,55.4,100,29.92,1.2,SSW,6.9,-,0.04,Rain-Thunderstorm,Heavy Rain,210,2013-05-21 07:33:00
3:49 AM,55.4,55.4,100,29.90,1.5,SSW,5.8,-,0.08,Rain-Thunderstorm,Thunderstorms and Rain,200,2013-05-21 07:49:00
3:51 AM,57.0,55.9,96,29.89,1.8,SSW,5.8,-,0.08,Rain-Thunderstorm,Thunderstorms and Rain,200,2013-05-21 07:51:00
3:57 AM,57.2,57.2,100,29.89,3.0,SSW,3.5,-,0.02,Rain-Thunderstorm,Rain,200,2013-05-21 07:57:00
4:04 AM,57.2,55.4,94,29.88,2.5,NNE,3.5,-,0.04,Rain,Heavy Rain,30,2013-05-21 08:04:00
4:18 AM,57.2,57.2,100,29.87,4.0,South,6.9,-,0.07,Rain,Light Rain,170,2013-05-21 08:18:00
4:51 AM,57.9,57.0,97,29.84,7.0,SW,4.6,-,0.08,,Mostly Cloudy,220,2013-05-21 08:51:00
5:51 AM,59.0,57.9,96,29.85,7.0,WSW,5.8,-,N/A,,Partly Cloudy,250,2013-05-21 09:51:00
6:51 AM,61.0,60.1,97,29.86,5.0,WSW,5.8,-,N/A,,Scattered Clouds,240,2013-05-21 10:51:00
7:43 AM,62.6,60.8,94,29.90,7.0,SW,4.6,-,N/A,,Partly Cloudy,230,2013-05-21 11:43:00
7:51 AM,62.1,60.1,93,29.89,7.0,WSW,6.9,-,N/A,,Partly Cloudy,240,2013-05-21 11:51:00
8:43 AM,64.4,60.8,88,29.92,10.0,WSW,8.1,-,N/A,,Mostly Cloudy,250,2013-05-21 12:43:00
8:51 AM,66.0,61.0,84,29.91,10.0,WSW,9.2,-,N/A,,Mostly Cloudy,250,2013-05-21 12:51:00
9:51 AM,64.9,59.0,81,29.93,10.0,West,6.9,-,N/A,,Overcast,280,2013-05-21 13:51:00
10:22 AM,64.4,59.0,83,29.94,10.0,Variable,5.8,-,N/A,,Overcast,0,2013-05-21 14:22:00
10:51 AM,63.0,57.9,84,29.94,10.0,NW,5.8,-,N/A,,Overcast,310,2013-05-21 14:51:00
11:51 AM,62.1,57.9,86,29.95,9.0,WNW,5.8,-,N/A,,Overcast,300,2013-05-21 15:51:00
12:19 PM,62.6,57.2,82,29.95,8.0,Calm,Calm,-,N/A,,Overcast,0,2013-05-21 16:19:00
12:51 PM,62.1,57.9,86,29.93,9.0,Calm,Calm,-,N/A,,Overcast,0,2013-05-21 16:51:00
1:10 PM,62.6,57.2,82,29.93,10.0,SSW,3.5,-,N/A,,Overcast,210,2013-05-21 17:10:00
1:46 PM,64.4,57.2,77,29.93,10.0,Calm,Calm,-,N/A,,Overcast,0,2013-05-21 17:46:00
1:51 PM,64.9,57.9,78,29.91,10.0,Calm,Calm,-,N/A,,Overcast,0,2013-05-21 17:51:00
2:51 PM,64.9,57.0,75,29.91,10.0,ENE,8.1,-,N/A,,Mostly Cloudy,70,2013-05-21 18:51:00
3:15 PM,64.4,57.2,77,29.91,10.0,NE,9.2,-,N/A,,Overcast,50,2013-05-21 19:15:00
3:51 PM,64.0,55.9,75,29.88,10.0,ENE,11.5,-,N/A,,Scattered Clouds,70,2013-05-21 19:51:00
4:51 PM,63.0,55.0,75,29.87,10.0,NE,12.7,-,N/A,,Mostly Cloudy,50,2013-05-21 20:51:00
5:51 PM,62.1,55.0,78,29.86,10.0,East,11.5,-,N/A,,Mostly Cloudy,80,2013-05-21 21:51:00
6:51 PM,60.1,54.0,80,29.83,10.0,ENE,10.4,-,N/A,,Mostly Cloudy,60,2013-05-21 22:51:00
7:25 PM,59.0,53.6,82,29.93,10.0,WNW,13.8,27.6,N/A,Thunderstorm,Overcast,300,2013-05-21 23:25:00
7:30 PM,59.0,53.6,82,29.93,1.8,West,13.8,27.6,0.12,Rain-Thunderstorm,Rain,280,2013-05-21 23:30:00
7:43 PM,57.2,53.6,88,29.92,1.8,NNE,13.8,26.5,0.29,Rain-Thunderstorm,Heavy Thunderstorms and Rain,20,2013-05-21 23:43:00
7:47 PM,55.4,53.6,94,29.92,3.0,NNE,11.5,26.5,0.30,Rain-Thunderstorm,Thunderstorms and Rain,30,2013-05-21 23:47:00
7:51 PM,55.9,54.0,93,29.92,4.0,NNE,9.2,21.9,0.31,Rain-Thunderstorm,Thunderstorms and Rain,30,2013-05-21 23:51:00
7:58 PM,55.4,53.6,94,29.91,4.0,NE,13.8,20.7,0.02,Rain-Thunderstorm,Thunderstorms and Rain,50,2013-05-21 23:58:00
8:33 PM,55.4,53.6,94,29.84,10.0,NE,15.0,24.2,0.09,Rain,Light Rain,50,2013-05-22 00:33:00
8:51 PM,55.0,53.1,93,29.84,10.0,ENE,11.5,-,0.09,,Mostly Cloudy,70,2013-05-22 00:51:00
9:51 PM,54.0,52.0,93,29.83,10.0,NE,5.8,-,N/A,,Partly Cloudy,50,2013-05-22 01:51:00
10:51 PM,53.1,52.0,96,29.81,10.0,East,3.5,-,N/A,,Scattered Clouds,90,2013-05-22 02:51:00
11:03 PM,53.6,51.8,94,29.81,1.8,ESE,4.6,-,0.15,Rain,Heavy Rain,110,2013-05-22 03:03:00
11:15 PM,53.6,51.8,94,29.78,3.0,NE,8.1,-,0.24,Rain,Light Rain,40,2013-05-22 03:15:00
11:29 PM,53.6,51.8,94,29.83,2.5,North,10.4,16.1,0.34,Rain,Heavy Rain,350,2013-05-22 03:29:00
11:36 PM,53.6,53.6,100,29.83,0.8,NNW,3.5,16.1,0.54,Rain,Heavy Rain,330,2013-05-22 03:36:00
11:43 PM,55.4,53.6,94,29.82,0.8,SSE,8.1,-,0.67,Rain-Thunderstorm,Heavy Thunderstorms and Rain,160,2013-05-22 03:43:00
11:51 PM,54.0,54.0,100,29.81,3.0,Calm,Calm,-,0.69,Rain-Thunderstorm,Thunderstorms and Rain,0,2013-05-22 03:51:00